CW9687 Weather Reports


Display with metric or nautical units.
time (UTC)temp
F
wind
direction
speed
MPH
gust
MPH
rain 1hr
in
rain 24hr
in
rain mn
in
humidity
%
barometer
mb
20260506062025 54 46 0.0 0.0 0.00 0.00 0.00 82 1018.0
20260506061531 54 46 0.0 0.0 0.00 0.00 0.00 82 1017.9
20260506061026 54 46 0.0 0.0 0.00 0.00 0.00 82 1017.8
20260506060524 54 46 0.0 2.0 0.00 0.00 0.00 82 1017.8
20260506051021 55 52 0.0 5.0 0.00 0.00 0.00 81 1017.4
20260506050521 55 51 0.0 4.0 0.00 0.00 0.00 81 1017.4
20260506045011 55 30 1.0 4.0 0.00 0.00 0.00 80 1017.3
20260506044510 55 348 0.0 5.0 0.00 0.00 0.00 80 1017.2
20260506044016 55 339 0.0 7.0 0.00 0.00 0.00 80 1017.2
20260506043510 55 333 0.0 7.0 0.00 0.00 0.00 80 1017.2
20260506043010 55 69 0.0 3.0 0.00 0.00 0.00 80 1017.2
20260506042511 55 6 0.0 3.0 0.00 0.00 0.00 80 1017.2
20260506042013 55 2 0.0 5.0 0.00 0.00 0.00 80 1017.1
20260506041509 55 37 1.0 6.0 0.00 0.00 0.00 79 1017.1
20260506041012 55 38 1.0 6.0 0.00 0.00 0.00 79 1017.0
20260506040507 56 30 1.0 8.0 0.00 0.00 0.00 79 1016.9
20260506040100 56 50 3.0 9.0 0.00 0.00 0.00 79 1016.8
20260506035551 56 350 1.0 11.0 0.00 0.00 0.00 79 1016.7
20260506035050 56 329 3.0 11.0 0.00 0.00 0.00 78 1016.6
20260506034603 56 310 1.0 8.0 0.00 0.00 0.00 78 1016.5
20260506034049 56 329 0.0 8.0 0.00 0.00 0.00 77 1016.4
20260506033548 56 6 0.0 7.0 0.00 0.00 0.00 77 1016.3
20260506033048 56 39 1.0 7.0 0.00 0.00 0.00 77 1016.3
20260506032547 56 1 1.0 7.0 0.00 0.00 0.00 76 1016.3
20260506032047 57 42 0.0 9.0 0.00 0.00 0.00 76 1016.2
20260506031557 57 346 0.0 9.0 0.00 0.00 0.00 76 1016.1
20260506031147 57 12 1.0 9.0 0.00 0.00 0.00 76 1016.0
20260506030544 57 37 3.0 11.0 0.00 0.00 0.00 75 1015.9
20260506030039 57 59 3.0 11.0 0.00 0.00 0.00 75 1015.7
20260506025538 57 343 1.0 12.0 0.00 0.00 0.00 74 1015.7
20260506025038 57 23 2.0 14.0 0.00 0.00 0.00 74 1015.7
20260506024538 58 71 1.0 14.0 0.00 0.00 0.00 73 1015.6
20260506024038 58 321 3.0 11.0 0.00 0.00 0.00 72 1015.6
20260506023538 58 336 1.0 15.0 0.00 0.00 0.00 72 1015.6
20260506023037 58 345 2.0 15.0 0.00 0.00 0.00 71 1015.5
20260506022537 59 7 2.0 10.0 0.00 0.00 0.00 71 1015.6
20260506022037 59 316 2.0 13.0 0.00 0.00 0.00 70 1015.5
20260506021537 59 42 1.0 11.0 0.00 0.00 0.00 69 1015.4
20260506021036 59 42 3.0 11.0 0.00 0.00 0.00 69 1015.4
20260506020536 59 23 4.0 11.0 0.00 0.00 0.00 68 1015.4
20260506020024 60 356 2.0 11.0 0.00 0.00 0.00 68 1015.4
20260506015525 60 10 2.0 11.0 0.00 0.00 0.00 67 1015.3
20260506015026 60 343 3.0 11.0 0.00 0.00 0.00 66 1015.2
20260506014524 61 3 3.0 12.0 0.00 0.00 0.00 65 1015.2
20260506014024 61 54 3.0 10.0 0.00 0.00 0.00 65 1015.3
20260506013525 61 73 1.0 11.0 0.00 0.00 0.00 65 1015.3
20260506013024 61 331 4.0 14.0 0.00 0.00 0.00 64 1015.2
20260506012524 62 48 5.0 16.0 0.00 0.00 0.00 64 1015.3
20260506012027 62 350 5.0 16.0 0.00 0.00 0.00 63 1015.2
20260506011527 62 356 2.0 14.0 0.00 0.00 0.00 62 1015.2
20260506011023 62 359 5.0 14.0 0.00 0.00 0.00 62 1015.2
20260506010523 63 6 4.0 14.0 0.00 0.00 0.00 61 1015.1
20260506010008 63 3 4.0 15.0 0.00 0.00 0.00 60 1015.3
20260506005503 63 62 4.0 15.0 0.00 0.00 0.00 60 1015.3
20260506005004 64 44 2.0 15.0 0.00 0.00 0.00 61 1015.2
20260506004602 64 8 1.0 13.0 0.00 0.00 0.00 60 1015.1
20260506004001 64 316 3.0 12.0 0.00 0.00 0.00 60 1015.1
20260506003503 64 23 3.0 15.0 0.00 0.00 0.00 59 1015.2
20260506003003 65 54 4.0 15.0 0.00 0.00 0.00 60 1015.0
20260506002500 65 41 2.0 11.0 0.00 0.00 0.00 61 1015.0
20260506002100 65 339 5.0 19.0 0.00 0.00 0.00 61 1014.9
20260506001600 65 359 5.0 20.0 0.00 0.00 0.00 62 1014.9
20260506001059 65 12 4.0 12.0 0.00 0.00 0.00 61 1014.9
20260506000600 65 14 3.0 15.0 0.00 0.00 0.00 61 1014.9
20260506000052 65 350 2.0 15.0 0.00 0.00 0.00 60 1014.9
20260505235552 65 50 2.0 16.0 0.00 0.00 0.00 59 1014.8
20260505235052 65 321 6.0 17.0 0.00 0.00 0.00 59 1014.8
20260505234558 65 66 5.0 15.0 0.00 0.00 0.00 59 1014.8
20260505234052 66 34 2.0 11.0 0.00 0.00 0.00 59 1014.9
20260505233551 66 64 5.0 14.0 0.00 0.00 0.00 58 1014.9
20260505233105 66 355 2.0 10.0 0.00 0.00 0.00 59 1015.0
20260505232551 66 8 3.0 12.0 0.00 0.00 0.00 59 1014.8
20260505232053 66 38 2.0 10.0 0.00 0.00 0.00 58 1014.9
20260505231555 67 26 5.0 10.0 0.00 0.00 0.00 58 1014.8
20260505231050 67 61 1.0 10.0 0.00 0.00 0.00 57 1014.9
20260505230551 67 2 2.0 12.0 0.00 0.00 0.00 56 1015.0
20260505230034 68 360 4.0 12.0 0.00 0.00 0.00 54 1015.0
20260505225535 68 311 1.0 9.0 0.00 0.00 0.00 55 1015.1
20260505225034 68 46 2.0 9.0 0.00 0.00 0.00 55 1015.0
20260505224533 68 12 3.0 9.0 0.00 0.00 0.00 56 1015.1
20260505224035 68 49 2.0 12.0 0.00 0.00 0.00 56 1015.1
20260505223533 68 147 2.0 12.0 0.00 0.00 0.00 55 1015.2
20260505223036 68 325 3.0 12.0 0.00 0.00 0.00 56 1015.3
20260505222533 68 303 1.0 17.0 0.00 0.00 0.00 57 1015.2
20260505222031 67 167 4.0 17.0 0.00 0.00 0.00 56 1015.3
20260505221531 67 26 3.0 11.0 0.00 0.00 0.00 56 1015.3
20260505221031 67 69 2.0 11.0 0.00 0.00 0.00 58 1015.4
20260505220528 67 339 3.0 16.0 0.00 0.00 0.00 59 1015.3
20260505220021 67 33 4.0 16.0 0.00 0.00 0.00 59 1015.4
20260505215520 67 353 4.0 13.0 0.00 0.00 0.00 60 1015.5
20260505215019 66 344 4.0 13.0 0.00 0.00 0.00 60 1015.6
20260505214518 66 33 1.0 16.0 0.00 0.00 0.00 60 1015.7
20260505214022 66 318 4.0 16.0 0.00 0.00 0.00 59 1015.7
20260505213518 66 35 3.0 11.0 0.00 0.00 0.00 59 1015.7
20260505213017 66 351 4.0 10.0 0.00 0.00 0.00 60 1015.9
20260505212518 65 301 2.0 10.0 0.00 0.00 0.00 60 1015.8
20260505212018 65 23 0.0 8.0 0.00 0.00 0.00 61 1015.8
20260505211518 65 36 0.0 11.0 0.00 0.00 0.00 62 1015.7
20260505211017 64 308 3.0 11.0 0.00 0.00 0.00 64 1015.8
20260505210515 64 307 1.0 10.0 0.00 0.00 0.00 64 1015.8
20260505210010 64 334 1.0 11.0 0.00 0.00 0.00 64 1015.8
20260505205514 64 311 5.0 12.0 0.00 0.00 0.00 63 1015.8
20260505205011 64 360 3.0 15.0 0.00 0.00 0.00 62 1015.7
20260505204508 65 290 7.0 15.0 0.00 0.00 0.00 62 1015.7
20260505204009 65 316 7.0 15.0 0.00 0.00 0.00 61 1015.7
20260505203511 65 302 7.0 19.0 0.00 0.00 0.00 61 1015.8
20260505203008 65 273 8.0 19.0 0.00 0.00 0.00 63 1015.7
20260505202508 64 356 6.0 19.0 0.00 0.00 0.00 64 1015.6
20260505202008 64 306 6.0 18.0 0.00 0.00 0.00 64 1015.7
20260505201507 64 291 9.0 20.0 0.00 0.00 0.00 64 1015.7
20260505201009 64 308 10.0 24.0 0.00 0.00 0.00 63 1015.7
20260505200514 64 329 11.0 24.0 0.00 0.00 0.00 64 1015.8
20260505200100 64 304 7.0 19.0 0.00 0.00 0.00 63 1015.8
20260505195556 64 7 5.0 15.0 0.00 0.00 0.00 64 1015.8
20260505195056 64 333 7.0 16.0 0.00 0.00 0.00 63 1015.8
20260505194609 64 300 8.0 16.0 0.00 0.00 0.00 62 1015.9
20260505194055 64 292 4.0 17.0 0.00 0.00 0.00 64 1015.8
20260505193559 64 337 4.0 17.0 0.00 0.00 0.00 63 1015.8
20260505193055 65 293 6.0 16.0 0.00 0.00 0.00 63 1015.7
20260505192555 65 254 9.0 18.0 0.00 0.00 0.00 61 1015.7
20260505192055 66 314 9.0 18.0 0.00 0.00 0.00 61 1015.8
20260505191554 66 307 4.0 14.0 0.00 0.00 0.00 62 1015.7
20260505191053 66 306 8.0 16.0 0.00 0.00 0.00 61 1015.8
20260505190551 66 297 5.0 13.0 0.00 0.00 0.00 63 1015.8
20260505190041 65 304 6.0 12.0 0.00 0.00 0.00 62 1015.8
20260505185538 65 325 7.0 13.0 0.00 0.00 0.00 63 1015.8
20260505185038 66 321 8.0 13.0 0.00 0.00 0.00 63 1015.8
20260505184537 65 283 3.0 12.0 0.00 0.00 0.00 63 1015.8
20260505184037 65 293 5.0 12.0 0.00 0.00 0.00 64 1015.8
20260505183536 65 277 6.0 11.0 0.00 0.00 0.00 64 1015.9
20260505183039 65 321 4.0 12.0 0.00 0.00 0.00 65 1015.8
20260505182534 65 304 6.0 12.0 0.00 0.00 0.00 65 1015.9
20260505182037 64 322 7.0 13.0 0.00 0.00 0.00 65 1015.9
20260505181533 65 281 7.0 13.0 0.00 0.00 0.00 65 1015.9
20260505181031 65 281 5.0 11.0 0.00 0.00 0.00 64 1015.8
20260505180531 65 356 4.0 11.0 0.00 0.00 0.00 65 1015.8
20260505180024 65 300 5.0 11.0 0.00 0.00 0.00 66 1015.9
20260505175523 65 296 6.0 12.0 0.00 0.00 0.00 65 1015.9
20260505175022 65 276 5.0 14.0 0.00 0.00 0.00 66 1015.8
20260505174522 65 276 6.0 14.0 0.00 0.00 0.00 64 1015.7
20260505174024 65 277 7.0 13.0 0.00 0.00 0.00 65 1015.7
20260505173521 65 291 4.0 9.0 0.00 0.00 0.00 64 1015.5
20260505173019 65 308 5.0 11.0 0.00 0.00 0.00 64 1015.6
20260505172520 64 331 7.0 12.0 0.00 0.00 0.00 64 1015.4
20260505172018 64 329 4.0 12.0 0.00 0.00 0.00 64 1015.5
20260505171522 64 315 3.0 8.0 0.00 0.00 0.00 64 1015.4
20260505171015 64 343 3.0 9.0 0.00 0.00 0.00 64 1015.4
20260505170515 64 10 2.0 10.0 0.00 0.00 0.00 61 1015.5
20260505170054 64 87 2.0 9.0 0.00 0.00 0.00 61 1015.6
20260505165553 64 319 3.0 7.0 0.00 0.00 0.00 62 1015.6
20260505165052 64 1 1.0 8.0 0.00 0.00 0.00 61 1015.6
20260505164615 64 32 2.0 11.0 0.00 0.00 0.00 62 1015.6
20260505164052 64 23 4.0 11.0 0.00 0.00 0.00 63 1015.7
20260505163549 64 36 4.0 11.0 0.00 0.00 0.00 64 1015.6
20260505163053 63 354 2.0 10.0 0.00 0.00 0.00 65 1015.6
20260505162547 63 60 1.0 6.0 0.00 0.00 0.00 67 1015.5
20260505162046 63 54 2.0 7.0 0.00 0.00 0.00 67 1015.5
20260505161546 62 48 1.0 7.0 0.00 0.00 0.00 67 1015.5
20260505161044 62 62 1.0 7.0 0.00 0.00 0.00 68 1015.5
20260505160545 62 54 2.0 9.0 0.00 0.00 0.00 69 1015.5
20260505153026 60 83 1.0 5.0 0.00 0.00 0.00 75 1015.4
20260505152524 59 102 0.0 4.0 0.00 0.00 0.00 76 1015.4
20260505152027 59 119 0.0 4.0 0.00 0.00 0.00 76 1015.3
20260505151522 58 83 0.0 4.0 0.00 0.00 0.00 77 1015.4
20260505151025 58 96 1.0 4.0 0.00 0.00 0.00 78 1015.3
20260505150518 57 171 1.0 3.0 0.00 0.00 0.00 80 1015.3
20260505140559 52 75 0.0 1.0 0.00 0.00 0.00 84 1015.0
20260505125035 51 58 0.0 0.0 0.00 0.00 0.00 83 1014.8
20260505124540 51 58 0.0 0.0 0.00 0.00 0.00 83 1014.9
20260505124036 51 58 0.0 0.0 0.00 0.00 0.00 83 1014.8
20260505123535 51 58 0.0 0.0 0.00 0.00 0.00 83 1014.9
20260505123039 51 58 0.0 0.0 0.00 0.00 0.00 83 1015.0
20260505122535 51 58 0.0 0.0 0.00 0.00 0.00 83 1014.8
20260505122036 51 58 0.0 0.0 0.00 0.00 0.00 83 1014.9
20260505121535 51 58 0.0 0.0 0.00 0.00 0.00 83 1014.9
20260505121034 51 58 0.0 0.0 0.00 0.00 0.00 83 1014.8
20260505120535 51 58 0.0 0.0 0.00 0.00 0.00 83 1014.9
20260505120033 51 58 0.0 0.0 0.00 0.00 0.00 83 1014.9
20260505115533 51 58 0.0 0.0 0.00 0.00 0.00 83 1014.9
20260505115033 51 58 0.0 0.0 0.00 0.00 0.00 83 1014.9
20260505114533 51 58 0.0 0.0 0.00 0.00 0.00 83 1014.8
20260505114033 51 58 0.0 0.0 0.00 0.00 0.00 83 1014.8
20260505113532 51 58 0.0 0.0 0.00 0.00 0.00 82 1014.9
20260505113032 51 58 0.0 0.0 0.00 0.00 0.00 82 1014.9
20260505112531 51 58 0.0 0.0 0.00 0.00 0.00 82 1014.9
20260505112033 51 58 0.0 0.0 0.00 0.00 0.00 82 1014.9
20260505111537 51 58 0.0 0.0 0.00 0.00 0.00 82 1014.9
20260505111033 51 58 0.0 0.0 0.00 0.00 0.00 82 1014.8
20260505110531 52 58 0.0 0.0 0.00 0.00 0.00 82 1014.8
20260505102029 52 58 0.0 0.0 0.00 0.00 0.00 82 1014.8
20260505101527 52 58 0.0 0.0 0.00 0.00 0.00 81 1014.8
20260505101026 52 58 0.0 0.0 0.00 0.00 0.00 81 1014.8
20260505100526 52 58 0.0 0.0 0.00 0.00 0.00 82 1014.8
20260505100030 52 58 0.0 0.0 0.00 0.00 0.00 81 1014.9
20260505095525 52 58 0.0 0.0 0.00 0.00 0.00 81 1014.9
20260505095024 52 58 0.0 0.0 0.00 0.00 0.00 81 1014.9
20260505094523 52 58 0.0 0.0 0.00 0.00 0.00 81 1014.9
20260505094023 52 58 0.0 0.0 0.00 0.00 0.00 81 1015.0
20260505093523 52 58 0.0 0.0 0.00 0.00 0.00 81 1015.1
20260505093022 52 58 0.0 0.0 0.00 0.00 0.00 81 1015.1
20260505092525 52 58 0.0 0.0 0.00 0.00 0.00 81 1015.2
20260505092020 52 58 0.0 0.0 0.00 0.00 0.00 81 1015.2
20260505091520 52 58 0.0 0.0 0.00 0.00 0.00 81 1015.2
20260505091024 52 58 0.0 0.0 0.00 0.00 0.00 81 1015.2
20260505090519 52 58 0.0 0.0 0.00 0.00 0.00 80 1015.4
20260505090019 52 58 0.0 0.0 0.00 0.00 0.00 81 1015.4
20260505085519 52 58 0.0 0.0 0.00 0.00 0.00 81 1015.5
20260505085018 52 58 0.0 0.0 0.00 0.00 0.00 81 1015.4
20260505084521 52 58 0.0 0.0 0.00 0.00 0.00 81 1015.5
20260505084017 52 58 0.0 0.0 0.00 0.00 0.00 80 1015.5
20260505083516 52 58 0.0 0.0 0.00 0.00 0.00 80 1015.5
20260505083017 52 58 0.0 0.0 0.00 0.00 0.00 80 1015.5
20260505082516 53 58 0.0 0.0 0.00 0.00 0.00 80 1015.6
20260505082018 53 58 0.0 0.0 0.00 0.00 0.00 80 1015.5
20260505081515 53 58 0.0 0.0 0.00 0.00 0.00 80 1015.6
20260505081015 53 58 0.0 0.0 0.00 0.00 0.00 80 1015.5
20260505080518 53 58 0.0 0.0 0.00 0.00 0.00 80 1015.6
20260505080014 53 58 0.0 0.0 0.00 0.00 0.00 80 1015.6
20260505075513 53 58 0.0 2.0 0.00 0.00 0.00 80 1015.5
20260505075016 53 58 0.0 2.0 0.00 0.00 0.00 79 1015.5
20260505074513 53 58 0.0 2.0 0.00 0.00 0.00 79 1015.6
20260505074012 53 58 0.0 2.0 0.00 0.00 0.00 79 1015.6
20260505073512 53 58 0.0 0.0 0.00 0.00 0.00 78 1015.6
20260505073012 53 58 0.0 0.0 0.00 0.00 0.00 78 1015.7
20260505072510 53 58 0.0 0.0 0.00 0.00 0.00 78 1015.7
20260505072009 53 58 0.0 0.0 0.00 0.00 0.00 78 1015.7
20260505071523 53 58 0.0 0.0 0.00 0.00 0.00 78 1015.6
20260505071009 54 58 0.0 0.0 0.00 0.00 0.00 78 1015.5
20260505070508 54 58 0.0 0.0 0.00 0.00 0.00 78 1015.5
20260505070007 54 58 0.0 0.0 0.00 0.00 0.00 78 1015.6
20260505065607 54 58 0.0 0.0 0.00 0.00 0.00 78 1015.6